STARLINK-3753 (52292 NORAD) Tracking and Keplerian Element Data
This shows tracking and keplerian element data for the satellite.
Feedback or suggestion? Click here.
Element | Value |
Catalog | 52292 |
Name | STARLINK-3753 |
Epoch Orbit | 130 |
Epoch Day | 167.08334491 |
Epoch Year | 2022 |
RAAN | 101.4373 |
Inclination | 53.2172 |
Eccentricity | 0.0001284 |
Argument of Perigee | 63.7256 |
Mean Anonmoly | 208.3429 |
Mean Motion | 15.54955958 |
Decay Rate | -0.00712997 |
L1 | 1 52292U 22041AH 22167.08334491 -.00712997 00000+0 -11432-1 0 9997 |
L2 | 2 52292 53.2172 101.4373 0001284 63.7256 208.3429 15.54955958 1303 |
Live tracking and technical data element details for STARLINK-3753 (NORAD 52292). STARLINK-3753 can be tracked NOW for your location showing map with azimuth and elevation plus other details from your city location.
Track the satellite on the map from your city or location and see movement details for azimuth, elevation, latitude, longitude, range, height, and movement on the map or in text.
IsCatalogInMostPopularTable: catalog: 52292, numindb: 1
Update: records affected: 1
GetName: 52292 STARLINK-3753
Hit Count: updated at: Sat, 25 Jun 2022 05:16:48 GMT